星链-30963 (STARLINK-30963 )

导读

STARLINK-30963是美国太空探索技术公司(SpaceX)星链(Starlink)星座中的一颗卫星,于2023年11月28日发射入轨。星链项目旨在构建全球卫星互联网星座,提供全球范围的宽带互联网服务,已扩展至航空、航运、应急通信等领域,STARLINK-30963是该大规模低轨互联网星座组网过程中的一员。

基本信息
目录编号:
58444
目录名称:
STARLINK-30963
国际标识:
2023-183H
轨道中心:
EARTH
卫星名称:
星链-30963
卫星全名:
星链-30963 (STARLINK-30963 )
卫星状态:
在轨 (已飞行1018 天)
发射日期:
2023-11-28 UTC
国别 :
美国 (US)
星等 :
--
该卫星已列入 空间交会检测服务 Space Conjunction Data Service (SCDS) ,当前飞行风险评估等级: 高风险
轨道信息
数据来源 国际轨道数据 AOE轨道数据
星历时间 2026-09-10T06:13:43+0800
1天前
查看轨道信息
2026-09-05T11:00:00+0800
6天前
查看轨道信息
半长轴 6861.229km 6861.186km
偏心率 0.0001289 0.0001516
轨道倾角 43.003° 43.002°
近地点辐角 280.257° 271.539°
升交点赤经 80.910° 108.024°
平近点角 79.813° 294.554°
近地点 482.207km 482.008km
远地点 483.977km 484.09km
周期 94.268分钟 94.267分钟
每日圈数 15.275658 15.275801
详细信息
固有亮度:
5
最大亮度:
0.3
卫星平台:
Starlink v2.0 mini
覆盖范围:
全球
运营商:
太空探索技术公司
运营商所在国:
美国
制造商(研发单位):
太空探索技术公司
制造商所在国:
美国
使用方式:
暂无
卫星简介
星链(Starlink)计划是由太空探索技术公司(SpaceX)提出的一个巨型低轨卫星互联网星座项目,计划在2019年至2024年间在太空搭建由约1.2万颗卫星组成的“星链”网络,其中1584颗将部署在地球上空550千米处的近地轨道,并从2020年开始工作。该卫星仍在工作。
2D轨道图
3D轨道图
轨道高度分析图
轨道倾角分析图
轨道综合分析图
查看轨道综合分析图
与全量物体交会距离演化趋势
与全量物体交会风险概率演化趋势